Regional Weather Roundup
Issued by NWS Columbia, SC

Home | Current Version | Previous Version | Text Only | Print | Product List | Glossary On
Versions: 1 2 3 4 5 6 7 8 9 10 11 12 13 14 15 16 17 18 19 20 21 22 23 24 25 26 27 28 29 30 31 32 33 34 35 36 37 38 39 40 41 42 43 44 45 46 47 48 49 50
000
ASUS42 KCAE 300210
RWRCAE
REGIONAL WEATHER ROUNDUP
NATIONAL WEATHER SERVICE COLUMBIA SC
1000 PM EDT WED JUL 29 2015

NOTE: "FAIR" INDICATES FEW OR NO CLOUDS BELOW 12,000 FEET WITH NO
SIGNIFICANT WEATHER AND/OR OBSTRUCTIONS TO VISIBILITY.

NOT ALL STATIONS ARE QUALITY CONTROLLED BY THE NATIONAL
WEATHER SERVICE. USE DATA WITH CAUTION...ESPECIALLY
DEWPOINT OBSERVATIONS.

SCZ001>056-GAZ040-063>065-077-300300-
...UPSTATE SOUTH CAROLINA...

CITY           SKY/WX    TMP DP  RH WIND       PRES   REMARKS
ANDERSON       PTCLDY    78  75  90 CALM      29.99R
SPARTANBURG      N/A     79  77  94 CALM      29.99R
CLEMSON        CLEAR     80  73  79 CALM      30.02R
GREENVILLE     CLEAR     82  72  71 W3        30.02R
GREENWOOD      PTCLDY    79  75  87 CALM      30.00R
GREER          CLEAR     80  74  81 CALM      30.00R
ROCK HILL      CLOUDY    80  75  84 CALM      30.00R
CHESTER        RAIN      77  75  94 N8        29.99S
LAURENS        CLEAR     79  79 100 CALM      29.99R


...CENTRAL SOUTH CAROLINA...

CITY           SKY/WX    TMP DP  RH WIND       PRES   REMARKS
COLUMBIA APT   MOCLDY    87  72  60 W3        29.94R
COLUMBIA OWENS CLOUDY    88  75  65 CALM      29.95R HX  97
DARLINGTON     CLEAR     82  66  57 SE7       29.98R
FLORENCE       CLEAR     83  70  64 S10       29.97R
MCENTIRE ANGB  MOCLDY    84  70  62 SE6       29.96R
ORANGEBURG     CLOUDY    86  70  58 S9        29.96R
SUMTER SHAW    PTCLDY    87  70  57 SE10      29.94R
NEWBERRY       PTCLDY    77  73  88 CALM      30.00R
AIKEN          FAIR      82  70  65 CALM      30.00R
BARNWELL       CLOUDY    88  72  58 SE6       29.96R
MANNING        FAIR      81  68  65 SE3       29.97R
CAMDEN         FAIR      84  70  61 E5        29.97R
LANCASTER      MOCLDY    81  77  89 CALM      29.98R
WINNSBORO      PTCLDY    82  75  78 CALM      29.97S


...EASTERN AND COASTAL SOUTH CAROLINA...

CITY           SKY/WX    TMP DP  RH WIND       PRES   REMARKS
MYRTLE BEACH   CLEAR     81  72  74 E10       29.99R
N MYRTLE BCH   CLEAR     81  74  79 E3        29.97R
CONWAY         FAIR      75  72  88 CALM      29.98R
MARION         FAIR      81  68  65 S3        29.98R
HARTSVILLE     FAIR      79  68  69 CALM      29.97R
FLORENCE       CLEAR     83  70  64 S10       29.97R
DARLINGTON     CLEAR     82  66  57 SE7       29.98R
CHARLESTON APT PTCLDY    81  75  82 SE6       29.95S
MOUNT PLEASANT LGT RAIN  79  75  89 CALM      29.96R
WALTERBORO     CLEAR     82  75  78 SE3       29.97S
BEAUFORT       PTCLDY    83  79  88 SE5       29.96R


...EASTERN GEORGIA...

CITY           SKY/WX    TMP DP  RH WIND       PRES   REMARKS
AUGUSTA BUSH F MOCLDY    85  74  69 CALM      29.94R
AUGUSTA DANIEL MOCLDY    85  74  69 NW6       29.96R
THOMSON        PTCLDY    78  78 100 CALM      30.01R
WASHINGTON     FAIR      82  79  89 CALM      29.98R
CLAXTON        FAIR      82  73  74 S5        29.95R
SYLVANIA       PTCLDY    85  78  80 SE7       29.96R HX  96
STATESBORO     CLOUDY    85  78  80 S9        29.95R HX  96
SAVANNAH       PTCLDY    82  75  79 SE5       29.96R


...SOUTHERN NORTH CAROLINA...

CITY           SKY/WX    TMP DP  RH WIND       PRES   REMARKS
CHARLOTTE      MOCLDY    78  71  79 N3        30.00R
MONROE         MOCLDY    83  72  69 NE5       29.98R
WADESBORO      CLOUDY    83  69  62 CALM      29.97R
ROCKINGHAM     PTCLDY    82  71  69 CALM      29.98R
RUTHERFORDTON  CLEAR     80  75  84 CALM      30.01S
ASHEVILLE      CLEAR     75  72  90 CALM      30.09R

$$


USA.gov is the U.S. government's official web portal to all federal, state and local government web resources and services.